Location: Unspecified
(43.3830°N, 0.0000°E)
Time: 05:10:59
(UTC+00:00)

Explorer 7 - Pass Details

Date: 04 July 2019
Orbit: 485 x 680 km, 50.3° (Epoch: 21 August)

Event Time Altitude Azimuth Distance (km) Brightness Sun altitude
Rises 06:19:08 0° 275° (W) 2,649 9.7 18.1°
Reaches altitude 10° 06:21:26 10° 285° (WNW) 1,791 9.0 18.5°
Maximum altitude 06:25:11 34° 351° (N) 928 8.2 19.1°
Drops below altitude 10° 06:29:10 10° 58° (ENE) 1,904 11.2 19.8°
Sets 06:31:41 0° 67° (ENE) 2,844 12.0 20.3°
